EA1AXY-13 Monterrei ES current weather conditions

sailwx.info

Wind from 093 at 0 knots gusting 3

Air temperature 27.2° C
Dewpoint 10.0° C

Last reported at 2018-Jul-18 10:05 UTC.
Time now 2018-Jul-18 10:35 UTC

Location: N 41°56' W 007°34'.
View on Google Maps.

See reports from other nearby stations

  
Tides and Currents Weather Stations Pressure Air Temp Water Temp Dewpoint Dewpoint Depression Visibility Wind Speed Wind Dir Waves Ship Positions
date/time (UTC)wind fromknots sea level pressurealtimeterstation pressurevisibilityair tempwater tempwave heightnotes
2018-Jul-18 10:05 093 0 gusting 3 27.2
2018-Jul-18 10:00 134 0 gusting 3 26.7
2018-Jul-18 09:55 132 0 gusting 3 26.7
2018-Jul-18 09:50 124 26.7
2018-Jul-18 09:45 160 26.7
2018-Jul-18 09:40 151 0 gusting 4 26.7
2018-Jul-18 09:35 144 0 gusting 4 26.1
2018-Jul-18 09:30 127 26.1
2018-Jul-18 09:25 111 26.1
2018-Jul-18 09:20 130 0 gusting 4 26.1
2018-Jul-18 09:15 136 26.1
2018-Jul-18 09:10 131 25.6
2018-Jul-18 09:05 113 25.0
2018-Jul-18 09:00 059 25.0
2018-Jul-18 08:55 350 23.9
2018-Jul-18 08:50 345 0 gusting 2 22.8
2018-Jul-18 08:45 348 0 gusting 3 21.7
2018-Jul-18 08:40 351 0 gusting 3 20.6
2018-Jul-18 08:35 356 0 gusting 3 20.6
2018-Jul-18 08:30 342 0 gusting 4 21.1
2018-Jul-18 08:25 337 0 gusting 4 21.7
2018-Jul-18 08:20 340 1 gusting 5 21.7
2018-Jul-18 08:15 338 0 gusting 5 22.8
2018-Jul-18 08:10 002 0 gusting 3 23.9
2018-Jul-18 08:05 026 24.4
2018-Jul-18 08:00 045 24.4
2018-Jul-18 07:55 045 23.9
2018-Jul-18 07:50 025 22.8
2018-Jul-18 07:45 017 0 gusting 2 21.7
2018-Jul-18 07:40 012 0 gusting 2 21.1
2018-Jul-18 07:35 356 21.1
2018-Jul-18 07:30 353 0 gusting 2 20.6
2018-Jul-18 07:25 355 0 gusting 2 20.0
2018-Jul-18 07:20 352 0 gusting 3 19.4
2018-Jul-18 07:15 341 1 gusting 5 18.9
2018-Jul-18 07:10 341 1 gusting 5 18.3
2018-Jul-18 07:05 356 0 gusting 4 17.8
2018-Jul-18 07:00 003 1 gusting 4 17.8
2018-Jul-18 06:55 007 1 gusting 4 17.2
2018-Jul-18 06:50 338 1 gusting 4 16.7
2018-Jul-18 06:45 316 1 gusting 4 16.1
2018-Jul-18 06:40 325 1 gusting 4 16.1
2018-Jul-18 06:35 323 1 gusting 5 15.6
2018-Jul-18 06:30 310 1 gusting 5 15.6
2018-Jul-18 06:25 313 0 gusting 4 15.6
2018-Jul-18 06:20 319 0 gusting 5 15.6
2018-Jul-18 06:15 329 1 gusting 5 15.6
2018-Jul-18 06:10 345 1 gusting 4 15.6
2018-Jul-18 06:05 346 1 gusting 4 15.0
2018-Jul-18 06:00 328 1 gusting 3 15.0
2018-Jul-18 05:55 320 1 gusting 5 15.0
2018-Jul-18 05:50 325 2 gusting 6 15.0
2018-Jul-18 05:45 320 2 gusting 6 15.0
2018-Jul-18 05:40 316 2 gusting 6 15.0
2018-Jul-18 05:35 310 1 gusting 5 15.0
2018-Jul-18 05:30 311 1 gusting 5 15.6
2018-Jul-18 05:25 314 0 gusting 4 15.0
2018-Jul-18 05:20 314 15.0
2018-Jul-18 05:15 314 15.0
2018-Jul-18 05:10 314 15.0
2018-Jul-18 05:05 314 15.0
2018-Jul-18 05:00 314 15.0
2018-Jul-18 04:55 314 15.0
2018-Jul-18 04:50 314 15.0
2018-Jul-18 04:45 314 15.0
2018-Jul-18 04:40 314 15.6
2018-Jul-18 04:35 314 0 gusting 3 15.6
2018-Jul-18 04:30 314 0 gusting 3 15.6
2018-Jul-18 04:25 314 15.6
2018-Jul-18 04:20 314 15.6
2018-Jul-18 04:15 314 15.0
2018-Jul-18 04:10 314 15.6
2018-Jul-18 04:05 314 15.6
2018-Jul-18 04:00 314 15.6
2018-Jul-18 03:55 314 15.6
2018-Jul-18 03:50 314 16.1
2018-Jul-18 03:45 314 16.1
2018-Jul-18 03:40 16.1
2018-Jul-18 03:35 314 16.1
2018-Jul-18 03:30 314 16.7
2018-Jul-18 03:25 314 16.7
2018-Jul-18 03:20 314 16.7
2018-Jul-18 03:15 323 16.7
2018-Jul-18 03:10 348 16.7
2018-Jul-18 03:05 356 16.7
2018-Jul-18 03:00 001 16.7
2018-Jul-18 02:55 003 16.7
2018-Jul-18 02:50 330 0 gusting 3 16.7
2018-Jul-18 02:45 313 0 gusting 3 16.7
2018-Jul-18 02:40 333 0 gusting 3 16.7
2018-Jul-18 02:35 006 16.7
2018-Jul-18 02:30 038 0 gusting 5 16.7
2018-Jul-18 02:25 356 1 gusting 6 16.7
2018-Jul-18 02:20 339 2 gusting 6 16.7
2018-Jul-18 02:15 334 2 gusting 6 16.7
2018-Jul-18 02:10 314 1 gusting 6 16.7
2018-Jul-18 02:05 298 0 gusting 6 16.7
2018-Jul-18 02:00 298 1 gusting 6 16.7
2018-Jul-18 01:55 308 2 gusting 6 16.7
2018-Jul-18 01:50 310 2 gusting 6 16.7
2018-Jul-18 01:45 322 1 gusting 6 17.2
2018-Jul-18 01:40 347 17.2
2018-Jul-18 01:35 344 17.2
2018-Jul-18 01:30 337 0 gusting 3 17.2
2018-Jul-18 01:25 334 0 gusting 3 17.2
2018-Jul-18 01:20 335 1 gusting 5 17.2
2018-Jul-18 01:15 346 1 gusting 6 17.2
2018-Jul-18 01:10 350 2 gusting 6 17.2
2018-Jul-18 01:05 339 2 gusting 6 17.2
2018-Jul-18 01:00 327 1 gusting 6 17.2
2018-Jul-18 00:55 324 1 gusting 3 17.2
2018-Jul-18 00:50 325 0 gusting 3 17.2
2018-Jul-18 00:45 327 0 gusting 3 17.8
2018-Jul-18 00:40 315 0 gusting 3 17.8
2018-Jul-18 00:35 290 0 gusting 3 17.8
2018-Jul-18 00:30 270 17.8
2018-Jul-18 00:25 314 0 gusting 4 17.8
2018-Jul-18 00:20 343 0 gusting 4 17.8
2018-Jul-18 00:15 046 17.8
2018-Jul-18 00:10 090 17.8
2018-Jul-18 00:05 036 17.8
2018-Jul-18 00:00 004 0 gusting 3 17.8
2018-Jul-17 23:55 001 0 gusting 5 18.3
2018-Jul-17 23:50 349 1 gusting 6 18.3
2018-Jul-17 23:45 329 1 gusting 6 18.3
2018-Jul-17 23:40 323 1 gusting 6 18.3
2018-Jul-17 23:35 333 2 gusting 9 18.3
2018-Jul-17 23:30 337 2 gusting 9 18.3
2018-Jul-17 23:25 348 2 gusting 9 18.3
2018-Jul-17 23:20 350 2 gusting 9 18.3
2018-Jul-17 23:15 349 2 gusting 7 18.3
2018-Jul-17 23:10 359 2 gusting 7 18.3
2018-Jul-17 23:05 342 3 gusting 9 18.3
2018-Jul-17 23:00 335 3 gusting 9 18.3
2018-Jul-17 22:55 331 3 gusting 9 18.3
2018-Jul-17 22:50 335 4 gusting 9 18.3
2018-Jul-17 22:45 347 4 gusting 12 18.3
2018-Jul-17 22:40 348 4 gusting 12 18.3
2018-Jul-17 22:35 346 4 gusting 12 18.3
2018-Jul-17 22:30 331 3 gusting 9 18.3
2018-Jul-17 22:25 331 3 gusting 10 18.9
2018-Jul-17 22:20 335 3 gusting 10 18.9
2018-Jul-17 22:15 343 3 gusting 9 18.9
2018-Jul-17 22:10 352 3 gusting 9 18.3
2018-Jul-17 22:05 345 3 gusting 9 18.9
2018-Jul-17 22:00 324 4 gusting 9 18.9
2018-Jul-17 21:55 322 4 gusting 9 18.9
2018-Jul-17 21:50 323 3 gusting 9 18.9
2018-Jul-17 21:45 314 3 gusting 9 19.4
2018-Jul-17 21:40 322 3 gusting 8 19.4
2018-Jul-17 21:35 343 3 gusting 8 19.4
2018-Jul-17 21:30 343 3 gusting 8 19.4
2018-Jul-17 21:25 327 3 gusting 7 19.4
2018-Jul-17 21:20 322 3 gusting 7 19.4
2018-Jul-17 21:15 316 3 gusting 9 20.0
2018-Jul-17 21:10 315 3 gusting 9 20.0
2018-Jul-17 21:05 325 3 gusting 9 20.0
2018-Jul-17 21:00 344 3 gusting 9 20.0
2018-Jul-17 20:55 346 3 gusting 9 20.6
2018-Jul-17 20:50 338 2 gusting 7 20.6
2018-Jul-17 20:45 346 2 gusting 8 20.6
2018-Jul-17 20:40 348 2 gusting 8 20.6
2018-Jul-17 20:35 352 2 gusting 8 20.6
2018-Jul-17 20:30 350 2 gusting 6 20.6
2018-Jul-17 20:25 336 2 gusting 6 21.1
2018-Jul-17 20:20 324 2 gusting 6 21.1
2018-Jul-17 20:15 338 2 gusting 7 21.1
2018-Jul-17 20:10 353 2 gusting 7 21.7
2018-Jul-17 20:05 322 3 gusting 7 21.7
2018-Jul-17 20:00 317 3 gusting 7 21.7
2018-Jul-17 19:55 340 2 gusting 7 22.2
2018-Jul-17 19:50 343 2 gusting 6 22.2
2018-Jul-17 19:45 342 2 gusting 6 22.2
2018-Jul-17 19:40 354 2 gusting 6 22.8
2018-Jul-17 19:35 359 2 gusting 6 22.8
2018-Jul-17 19:30 003 1 gusting 6 23.3
2018-Jul-17 19:25 346 2 gusting 6 23.3
2018-Jul-17 19:20 334 2 gusting 6 23.3
2018-Jul-17 19:15 339 2 gusting 6 23.9
2018-Jul-17 19:10 355 2 gusting 6 23.9
2018-Jul-17 19:05 359 3 gusting 6 24.4
2018-Jul-17 19:00 346 2 gusting 6 25.0
2018-Jul-17 18:55 333 2 gusting 6 25.6
2018-Jul-17 18:50 339 3 gusting 6 26.1
2018-Jul-17 18:45 336 2 gusting 6 26.1
2018-Jul-17 18:40 308 2 gusting 7 26.7
2018-Jul-17 18:35 315 2 gusting 7 26.7
2018-Jul-17 18:30 336 3 gusting 7 26.7
2018-Jul-17 18:25 344 3 gusting 8 26.7
2018-Jul-17 18:20 335 2 gusting 8 27.2
2018-Jul-17 18:15 334 2 gusting 7 27.2
2018-Jul-17 18:10 335 3 gusting 8 27.2
2018-Jul-17 18:05 324 3 gusting 8 27.2
2018-Jul-17 18:00 319 3 gusting 6 27.2
2018-Jul-17 17:55 335 3 gusting 6 27.2
2018-Jul-17 17:50 342 3 gusting 9 27.2
2018-Jul-17 17:45 341 3 gusting 9 27.2
2018-Jul-17 17:40 334 3 gusting 6 27.8
2018-Jul-17 17:35 327 3 gusting 6 27.8
2018-Jul-17 17:30 328 3 gusting 8 27.8
2018-Jul-17 17:25 332 3 gusting 9 27.8
2018-Jul-17 17:20 347 3 gusting 9 27.8
2018-Jul-17 17:15 010 3 gusting 8 28.3
2018-Jul-17 17:10 020 3 gusting 7 28.3
2018-Jul-17 17:05 348 3 gusting 7 28.3
2018-Jul-17 17:00 329 3 gusting 8 28.3
2018-Jul-17 16:55 341 3 gusting 8 28.3
2018-Jul-17 16:50 344 2 gusting 8 28.9
2018-Jul-17 16:45 336 2 gusting 7 28.9
2018-Jul-17 16:40 333 3 gusting 8 28.9
2018-Jul-17 16:35 335 3 gusting 8 28.9
2018-Jul-17 16:30 338 3 gusting 9 28.9
2018-Jul-17 16:25 343 3 gusting 9 28.9
2018-Jul-17 16:20 344 2 gusting 7 29.4
2018-Jul-17 16:15 336 2 gusting 6 29.4
2018-Jul-17 16:10 330 2 gusting 7 29.4
2018-Jul-17 16:05 002 2 gusting 8 29.4
2018-Jul-17 16:00 358 3 gusting 8 28.9
2018-Jul-17 15:55 357 3 gusting 8 28.9
2018-Jul-17 15:50 023 2 gusting 6 28.9
2018-Jul-17 15:45 005 2 gusting 6 28.3
2018-Jul-17 15:40 005 1 gusting 6 28.3
2018-Jul-17 15:35 014 1 gusting 5 28.9
2018-Jul-17 15:30 350 1 gusting 5 30.0
2018-Jul-17 15:25 285 0 gusting 5 31.7
2018-Jul-17 15:20 143 32.2
2018-Jul-17 15:15 102 31.7
2018-Jul-17 15:10 076 0 gusting 3 31.7
2018-Jul-17 15:05 064 0 gusting 3 31.1
2018-Jul-17 15:00 084 0 gusting 3 31.1
2018-Jul-17 14:55 100 0 gusting 3 31.7
2018-Jul-17 14:50 133 0 gusting 4 31.7
2018-Jul-17 14:45 129 0 gusting 4 31.1
2018-Jul-17 14:40 073 0 gusting 3 30.6
2018-Jul-17 14:35 056 30.0
2018-Jul-17 14:30 027 29.4
2018-Jul-17 14:25 031 28.3
2018-Jul-17 14:20 147 28.3
2018-Jul-17 14:15 138 0 gusting 3 28.9
2018-Jul-17 14:10 116 0 gusting 3 30.0
2018-Jul-17 14:05 136 0 gusting 3 29.4
2018-Jul-17 14:00 154 0 gusting 3 30.0
2018-Jul-17 13:55 176 31.1
2018-Jul-17 13:50 174 31.1
2018-Jul-17 13:45 125 31.1
2018-Jul-17 13:40 092 30.6
2018-Jul-17 13:35 105 0 gusting 3 29.4
2018-Jul-17 13:30 069 0 gusting 5 29.4
2018-Jul-17 13:25 059 0 gusting 5 29.4
2018-Jul-17 13:20 081 29.4
2018-Jul-17 13:15 075 0 gusting 2 29.4
2018-Jul-17 13:10 090 0 gusting 3 30.0
2018-Jul-17 13:05 146 30.6
2018-Jul-17 13:00 139 30.0
2018-Jul-17 12:55 128 30.0
2018-Jul-17 12:50 130 29.4
2018-Jul-17 12:45 145 0 gusting 4 29.4
2018-Jul-17 12:40 172 0 gusting 2 29.4
2018-Jul-17 12:35 136 28.9
2018-Jul-17 12:30 051 0 gusting 4 28.9
2018-Jul-17 12:25 063 0 gusting 4 28.9
2018-Jul-17 12:20 112 28.9
2018-Jul-17 12:15 125 28.3
2018-Jul-17 12:10 145 28.3
2018-Jul-17 12:05 184 0 gusting 4 27.8
2018-Jul-17 12:00 177 0 gusting 4 27.8
2018-Jul-17 11:55 024 0 gusting 3 27.2
2018-Jul-17 11:50 021 0 gusting 3 26.7
2018-Jul-17 11:30 125 0 gusting 6 27.8
2018-Jul-17 11:25 038 0 gusting 11 27.2
2018-Jul-17 11:20 015 0 gusting 11 26.7
2018-Jul-17 11:15 332 0 gusting 3 26.1
2018-Jul-17 11:10 036 0 gusting 3 26.7
2018-Jul-17 11:05 065 26.7
2018-Jul-17 11:00 004 0 gusting 3 26.7
2018-Jul-17 10:55 058 26.1
2018-Jul-17 10:50 092 27.2
2018-Jul-17 10:45 105 0 gusting 8 26.7
2018-Jul-17 10:40 106 0 gusting 8 26.7
2018-Jul-17 10:35 105 0 gusting 5 26.7
2018-Jul-17 10:30 062 26.7
2018-Jul-17 10:25 091 26.7
2018-Jul-17 10:20 105 26.1
2018-Jul-17 10:15 174 0 gusting 3 26.1
2018-Jul-17 10:10 113 0 gusting 3 25.6
2018-Jul-17 10:05 056 0 gusting 3 25.6
2018-Jul-17 10:00 107 0 gusting 3 25.6
2018-Jul-17 09:55 146 0 gusting 3 25.6
2018-Jul-17 09:50 128 25.6
2018-Jul-17 09:45 087 25.6
2018-Jul-17 09:40 075 25.6
2018-Jul-17 09:35 108 0 gusting 3 25.6
2018-Jul-17 09:30 127 25.6
2018-Jul-17 09:25 131 0 gusting 6 25.6
2018-Jul-17 09:20 148 0 gusting 6 25.0
2018-Jul-17 09:15 107 0 gusting 6 24.4
2018-Jul-17 09:10 090 0 gusting 6 24.4
2018-Jul-17 09:05 104 0 gusting 6 23.9
2018-Jul-17 06:00 308 13.3
2018-Jul-17 05:55 331 13.3
2018-Jul-17 05:50 338 0 gusting 2 13.3
2018-Jul-17 05:45 321 0 gusting 3 13.3
2018-Jul-17 05:40 317 0 gusting 3 13.3
2018-Jul-17 05:35 325 0 gusting 3 13.3
2018-Jul-17 05:30 340 13.3
2018-Jul-17 05:25 324 13.3
2018-Jul-17 05:20 330 13.3
2018-Jul-17 05:15 325 0 gusting 3 13.3
2018-Jul-17 05:10 317 13.3
2018-Jul-17 05:05 331 13.3
2018-Jul-17 05:00 337 13.3
2018-Jul-17 04:55 013 13.3
2018-Jul-17 04:50 025 13.9
2018-Jul-17 04:45 007 13.9
2018-Jul-17 04:40 002 13.9
2018-Jul-17 04:35 004 13.9
2018-Jul-17 04:30 347 13.9
2018-Jul-17 04:25 341 13.9
2018-Jul-17 04:20 349 13.9
2018-Jul-17 04:15 032 13.9
2018-Jul-17 04:10 338 0 gusting 3 14.4
2018-Jul-17 04:05 328 0 gusting 3 14.4
2018-Jul-17 04:00 357 0 gusting 4 14.4
2018-Jul-17 03:55 346 0 gusting 4 14.4
2018-Jul-17 03:50 358 0 gusting 3 14.4
2018-Jul-17 03:45 358 0 gusting 4 14.4
2018-Jul-17 03:40 344 0 gusting 4 14.4
2018-Jul-17 03:35 342 0 gusting 4 14.4
2018-Jul-17 03:30 316 0 gusting 5 14.4
2018-Jul-17 03:25 318 1 gusting 5 14.4
2018-Jul-17 03:20 337 1 gusting 5 14.4
2018-Jul-17 03:15 344 0 gusting 4 14.4
2018-Jul-17 03:10 355 1 gusting 4 14.4
2018-Jul-17 03:05 345 1 gusting 4 14.4
2018-Jul-17 03:00 326 1 gusting 4 14.4
2018-Jul-17 02:55 331 1 gusting 4 14.4
2018-Jul-17 02:50 318 1 gusting 4 14.4
2018-Jul-17 02:45 321 0 gusting 3 14.4
2018-Jul-17 02:40 353 0 gusting 5 14.4
2018-Jul-17 02:35 359 0 gusting 5 14.4
2018-Jul-17 02:30 358 0 gusting 8 14.4
2018-Jul-17 02:25 353 0 gusting 8 14.4
2018-Jul-17 02:20 329 0 gusting 6 14.4
2018-Jul-17 02:15 349 0 gusting 6 14.4
2018-Jul-17 02:10 113 14.4
2018-Jul-17 02:05 152 14.4
2018-Jul-17 01:55 327 0 gusting 6 15.0
2018-Jul-17 01:50 336 1 gusting 8 15.0
2018-Jul-17 01:45 334 2 gusting 8 15.0
2018-Jul-17 01:40 344 2 gusting 7 15.0
2018-Jul-17 01:35 001 2 gusting 7 15.0
2018-Jul-17 01:30 359 2 gusting 6 15.0
2018-Jul-17 01:25 336 2 gusting 11 15.0
2018-Jul-17 01:20 333 3 gusting 11 15.0
2018-Jul-17 01:15 332 3 gusting 9 15.0
2018-Jul-17 01:10 332 3 gusting 10 15.0
2018-Jul-17 01:05 332 3 gusting 10 15.6
2018-Jul-17 01:00 321 3 gusting 9 15.6
2018-Jul-17 00:55 335 3 gusting 7 15.6
2018-Jul-17 00:50 346 3 gusting 7 15.6
2018-Jul-17 00:45 337 3 gusting 8 15.6
2018-Jul-17 00:40 331 3 gusting 8 15.6
2018-Jul-17 00:35 311 3 gusting 9 15.6
2018-Jul-17 00:30 321 3 gusting 10 15.6
2018-Jul-17 00:25 342 3 gusting 10 15.6
2018-Jul-17 00:20 332 3 gusting 10 16.1
2018-Jul-17 00:15 315 3 gusting 9 16.1
2018-Jul-17 00:10 322 3 gusting 9 16.1
2018-Jul-17 00:05 334 3 gusting 8 16.1
2018-Jul-17 00:00 332 3 gusting 8 16.1
2018-Jul-16 23:55 333 3 gusting 9 16.1
2018-Jul-16 23:50 333 3 gusting 9 16.1
2018-Jul-16 23:45 336 3 gusting 7 16.1
2018-Jul-16 23:40 336 3 gusting 7 16.1
2018-Jul-16 23:35 337 3 gusting 7 16.1
2018-Jul-16 23:30 333 3 gusting 6 16.1
2018-Jul-16 23:25 339 3 gusting 6 16.1
2018-Jul-16 23:20 334 2 gusting 6 16.1
2018-Jul-16 23:15 335 2 gusting 6 16.1
2018-Jul-16 23:10 323 2 gusting 6 16.1
2018-Jul-16 23:05 327 2 gusting 6 16.7
2018-Jul-16 23:00 352 2 gusting 6 16.7
2018-Jul-16 22:55 334 2 gusting 7 16.7
2018-Jul-16 22:50 322 3 gusting 9 16.7
2018-Jul-16 22:45 326 3 gusting 9 16.7
2018-Jul-16 22:40 343 3 gusting 8 16.7
2018-Jul-16 22:35 348 2 gusting 7 16.7
2018-Jul-16 22:30 348 2 gusting 7 16.7
2018-Jul-16 22:25 335 2 gusting 7 16.7
2018-Jul-16 22:20 329 2 gusting 9 16.7
2018-Jul-16 22:15 339 2 gusting 9 16.7
2018-Jul-16 22:10 335 2 gusting 9 16.7
2018-Jul-16 22:05 323 2 gusting 7 16.7
2018-Jul-16 22:00 323 3 gusting 7 17.2
2018-Jul-16 21:55 328 2 gusting 7 17.2
2018-Jul-16 21:50 329 2 gusting 6 17.2
2018-Jul-16 21:45 336 2 gusting 8 17.2
2018-Jul-16 21:40 332 3 gusting 8 17.2
2018-Jul-16 21:35 319 3 gusting 8 17.2
2018-Jul-16 21:30 320 3 gusting 9 17.2
2018-Jul-16 21:25 322 3 gusting 9 17.8
2018-Jul-16 21:20 310 2 gusting 9 17.8
2018-Jul-16 21:15 304 3 gusting 9 17.8
2018-Jul-16 21:10 304 3 gusting 7 17.8
2018-Jul-16 21:05 320 2 gusting 6 17.8
2018-Jul-16 21:00 336 2 gusting 9 17.8
2018-Jul-16 20:55 340 2 gusting 9 17.8
2018-Jul-16 20:50 348 2 gusting 6 17.8
2018-Jul-16 20:45 341 2 gusting 7 18.3
2018-Jul-16 20:40 325 2 gusting 7 18.3
2018-Jul-16 20:35 330 2 gusting 6 18.3
2018-Jul-16 20:30 330 1 gusting 6 18.3
2018-Jul-16 20:25 325 2 gusting 6 18.3
2018-Jul-16 20:20 334 2 gusting 6 18.9
2018-Jul-16 20:15 329 2 gusting 6 18.9
2018-Jul-16 20:10 326 2 gusting 6 18.9
2018-Jul-16 20:05 329 2 gusting 6 18.9
2018-Jul-16 20:00 335 2 gusting 6 19.4
2018-Jul-16 19:55 334 2 gusting 6 19.4
2018-Jul-16 19:50 334 3 gusting 8 20.0
2018-Jul-16 19:45 333 3 gusting 8 20.0
2018-Jul-16 19:40 333 3 gusting 7 20.0
2018-Jul-16 19:35 347 2 gusting 6 20.6
2018-Jul-16 19:30 336 2 gusting 6 20.6
2018-Jul-16 19:25 321 2 gusting 6 20.6
2018-Jul-16 19:20 326 2 gusting 6 21.1
2018-Jul-16 19:15 327 2 gusting 6 21.1
2018-Jul-16 19:10 326 2 gusting 6 21.7
2018-Jul-16 19:05 321 2 gusting 6 21.7
2018-Jul-16 19:00 329 3 gusting 6 22.2
2018-Jul-16 18:55 335 3 gusting 7 22.8
2018-Jul-16 18:50 340 3 gusting 11 23.3
2018-Jul-16 18:45 344 3 gusting 11 23.9
2018-Jul-16 18:40 337 3 gusting 8 23.9
2018-Jul-16 18:35 318 3 gusting 6 24.4
2018-Jul-16 18:30 288 3 gusting 9 24.4
2018-Jul-16 18:25 311 3 gusting 9 24.4
2018-Jul-16 18:20 352 3 gusting 9 24.4
2018-Jul-16 18:15 358 2 gusting 6 24.4
2018-Jul-16 18:10 355 2 gusting 6 25.0
2018-Jul-16 18:05 341 3 gusting 8 25.0
2018-Jul-16 18:00 344 3 gusting 8 25.0
2018-Jul-16 17:55 352 4 gusting 8 25.0
2018-Jul-16 17:50 328 3 gusting 8 25.0
2018-Jul-16 17:45 354 3 gusting 8 25.0
2018-Jul-16 17:40 002 3 gusting 8 25.0
2018-Jul-16 17:35 356 3 gusting 9 25.0
2018-Jul-16 17:30 356 3 gusting 9 25.6
2018-Jul-16 17:25 342 3 gusting 9 25.6
2018-Jul-16 17:20 324 3 gusting 10 25.6
2018-Jul-16 17:15 331 3 gusting 10 25.6
2018-Jul-16 17:10 344 3 gusting 7 25.6
2018-Jul-16 17:05 350 3 gusting 9 25.6
2018-Jul-16 17:00 353 3 gusting 9 25.6
2018-Jul-16 16:55 343 3 gusting 10 25.6
2018-Jul-16 16:50 001 3 gusting 10 25.6
2018-Jul-16 16:45 005 3 gusting 10 25.6
2018-Jul-16 16:40 352 3 gusting 7 25.6
2018-Jul-16 16:35 332 3 gusting 9 25.6
2018-Jul-16 16:30 309 3 gusting 10 25.6
2018-Jul-16 16:25 308 4 gusting 10 25.6
2018-Jul-16 16:20 313 3 gusting 8 25.6
2018-Jul-16 16:15 314 3 gusting 8 25.6
2018-Jul-16 16:10 317 3 gusting 9 25.6
2018-Jul-16 16:05 327 3 gusting 9 25.6
2018-Jul-16 16:00 330 3 gusting 8 25.6
2018-Jul-16 15:55 313 3 gusting 9 25.6
2018-Jul-16 15:50 307 3 gusting 9 25.0
2018-Jul-16 15:45 316 3 gusting 8 25.6
2018-Jul-16 15:40 336 2 gusting 8 25.0
2018-Jul-16 15:35 355 2 gusting 7 25.0
2018-Jul-16 15:30 343 2 gusting 7 25.0
2018-Jul-16 15:25 323 2 gusting 7 25.0
2018-Jul-16 15:20 350 2 gusting 7 25.0
2018-Jul-16 15:15 009 2 gusting 8 25.0
2018-Jul-16 15:10 024 3 gusting 9 25.0
2018-Jul-16 15:05 017 3 gusting 9 25.0
2018-Jul-16 15:00 329 3 gusting 9 25.0
2018-Jul-16 14:55 319 3 gusting 9 25.0
2018-Jul-16 14:50 342 3 gusting 9 25.0
2018-Jul-16 14:45 332 3 gusting 9 25.0
2018-Jul-16 14:40 325 3 gusting 6 25.6
2018-Jul-16 14:35 336 3 gusting 7 25.0
2018-Jul-16 14:30 342 3 gusting 10 25.0
2018-Jul-16 14:25 341 3 gusting 10 25.0
2018-Jul-16 14:20 333 3 gusting 8 25.0
2018-Jul-16 14:15 339 3 gusting 8 25.0
2018-Jul-16 14:10 345 3 gusting 9 25.0
2018-Jul-16 14:05 333 4 gusting 13 25.0
2018-Jul-16 14:00 342 4 gusting 13 25.0
2018-Jul-16 13:55 009 3 gusting 11 25.0
2018-Jul-16 13:50 009 3 gusting 11 24.4
2018-Jul-16 13:45 007 3 gusting 10 25.0
2018-Jul-16 13:40 359 3 gusting 10 25.0
2018-Jul-16 13:35 358 2 gusting 9 25.0
2018-Jul-16 13:30 026 2 gusting 6 25.0
2018-Jul-16 13:25 353 2 gusting 6 25.0
2018-Jul-16 13:20 338 2 gusting 7 24.4
2018-Jul-16 13:15 326 2 gusting 7 25.0
2018-Jul-16 13:10 344 2 gusting 7 25.0
2018-Jul-16 13:05 031 2 gusting 8 25.0
2018-Jul-16 13:00 023 2 gusting 8 25.0
2018-Jul-16 12:55 350 1 gusting 7 25.0
2018-Jul-16 12:50 343 2 gusting 9 24.4
2018-Jul-16 12:45 341 2 gusting 9 23.9
2018-Jul-16 12:40 335 2 gusting 6 24.4
2018-Jul-16 12:35 340 2 gusting 6 23.9
2018-Jul-16 12:30 342 2 gusting 6 24.4
2018-Jul-16 12:25 326 2 gusting 6 24.4
2018-Jul-16 12:20 325 2 gusting 7 24.4
2018-Jul-16 12:15 325 3 gusting 9 24.4
2018-Jul-16 12:10 339 3 gusting 9 23.9
2018-Jul-16 12:05 350 2 gusting 6 24.4
2018-Jul-16 12:00 338 2 gusting 6 24.4
2018-Jul-16 11:55 326 2 gusting 9 23.9
2018-Jul-16 11:50 317 2 gusting 9 23.9
2018-Jul-16 11:45 309 2 gusting 7 23.9
2018-Jul-16 11:40 323 3 gusting 7 23.3
2018-Jul-16 11:35 342 2 gusting 6 23.9
2018-Jul-16 11:30 331 2 gusting 8 23.3
2018-Jul-16 11:25 339 3 gusting 8 23.3
2018-Jul-16 11:20 317 3 gusting 9 22.8
2018-Jul-16 11:15 310 3 gusting 9 22.8
2018-Jul-16 11:10 314 2 gusting 8 22.8
2018-Jul-16 11:05 307 2 gusting 7 22.8
2018-Jul-16 11:00 328 2 gusting 9 22.8
2018-Jul-16 10:55 330 3 gusting 9 22.2
2018-Jul-16 10:50 339 3 gusting 9 22.2
2018-Jul-16 10:45 334 3 gusting 8 22.2
2018-Jul-16 10:40 319 3 gusting 8 21.7
2018-Jul-16 10:35 315 3 gusting 9 21.7
2018-Jul-16 10:30 321 3 gusting 9 21.7